Overview Statistics Trail Chart Weather Telemetry Raw packets
 

This is the latest recevied weather packets stored in our database for station/object KF7SOJ. If no packets are shown the sender has not sent any weather packets the latest 10 day(s).

<< 85 86 87 88 89 90 91 >>
Time Temp. Humidity Pressure Rain* Wind** Luminosity Snow
1787989616 20° C 60% 929.2 hPa 0 mm - 0 W/m² -
1787989310 20° C 61% 929.5 hPa 0 mm - 0 W/m² -
1787989010 20° C 61% 929.4 hPa 0 mm - 0 W/m² -
1787988709 20° C 61% 929.7 hPa 0 mm - 0 W/m² -
1787988406 20° C 61% 929.8 hPa 0 mm - 0 W/m² -
1787988105 20° C 61% 929.7 hPa 0 mm - 0 W/m² -
1787987802 20° C 61% 930 hPa 0 mm - 0 W/m² -
1787987502 20° C 61% 930.1 hPa 0 mm - 0 W/m² -
1787987196 20° C 61% 930 hPa 0 mm - 0 W/m² -
1787986892 19.44° C 62% 929.9 hPa 0 mm - 0 W/m² -
1787986591 19.44° C 63% 930 hPa 0 mm - 0 W/m² -
1787986286 18.89° C 66% 929.9 hPa 0 mm - 0 W/m² -
1787985985 18.89° C 66% 929.8 hPa 0 mm - 0 W/m² -
1787985679 18.33° C 67% 929.7 hPa 0 mm - 0 W/m² -
1787985374 18.33° C 68% 929.7 hPa 0 mm - 0 W/m² -
1787985074 18.33° C 68% 929.6 hPa 0 mm - 0 W/m² -
1787984773 18.33° C 70% 929.8 hPa 0 mm - 0 W/m² -
1787984469 18.33° C 71% 929.6 hPa 0 mm - 0 W/m² -
1787984168 18.89° C 70% 929.6 hPa 0 mm - 0 W/m² -
1787983862 19.44° C 67% 929.6 hPa 0 mm - 0 W/m² -
1787983562 20° C 60% 929.6 hPa 0 mm - 0 W/m² -
1787983257 20.56° C 58% 929.6 hPa 0 mm - 0 W/m² -
1787982953 21.11° C 56% 929.5 hPa 0 mm - 0 W/m² -
1787982648 21.11° C 56% 929.7 hPa 0 mm - 0 W/m² -
1787982344 21.11° C 56% 929.6 hPa 0 mm - 0 W/m² -

* Rain latest hour (hover to see other rain measurements)
** Current wind speed in m/s (hover to see current wind gust speed)